• en France
  • Liste des pays
  • À 7 jours
  • Température de l'eau
  • Carte satellitaire
  • Carte météo
  • Widgets météo
  • user-avatar
    Se connecter

    Météo par heure à Levyki

    Ce jour, 23 Septembre, Dimanche

    Heure Température Précipitation Vent Pression Humidité
    00:00 +9°C° 0.3 mm 3 m/s 742 mmHg 94%
    01:00 +9°C° 0.3 mm 3 m/s 742 mmHg 94%
    02:00 +9°C° 0 mm 3 m/s 742 mmHg 95%
    03:00 +8°C° 0 mm 3 m/s 742 mmHg 95%
    04:00 +8°C° 0 mm 3 m/s 742 mmHg 96%
    05:00 +7°C° 0 mm 3 m/s 742 mmHg 96%
    06:00 +8°C° 0 mm 3 m/s 742 mmHg 94%
    07:00 +8°C° 0 mm 3 m/s 742 mmHg 91%
    08:00 +8°C° 0 mm 4 m/s 741 mmHg 88%
    09:00 +10°C° 0 mm 4 m/s 741 mmHg 80%
    10:00 +12°C° 0 mm 5 m/s 741 mmHg 73%
    11:00 +13°C° 0 mm 5 m/s 741 mmHg 65%
    12:00 +13°C° 0.1 mm 5 m/s 741 mmHg 63%
    13:00 +14°C° 0.1 mm 5 m/s 741 mmHg 62%
    14:00 +14°C° 0 mm 5 m/s 741 mmHg 60%
    15:00 +13°C° 0.2 mm 4 m/s 741 mmHg 65%
    16:00 +13°C° 0.2 mm 4 m/s 741 mmHg 69%
    17:00 +12°C° 0.2 mm 3 m/s 741 mmHg 74%
    18:00 +11°C° 0 mm 3 m/s 741 mmHg 78%
    19:00 +9°C° 0 mm 3 m/s 741 mmHg 82%
    20:00 +8°C° 0 mm 3 m/s 741 mmHg 86%
    21:00 +8°C° 0 mm 3 m/s 741 mmHg 88%
    22:00 +8°C° 0 mm 3 m/s 741 mmHg 89%
    23:00 +7°C° 0 mm 3 m/s 741 mmHg 90%

    Demain, 24 Septembre, Lundi

    Heure Température Précipitation Vent Pression Humidité
    00:00 +7°C° 0 mm 2 m/s 740 mmHg 92%
    01:00 +7°C° 0 mm 2 m/s 740 mmHg 94%
    02:00 +7°C° 0 mm 2 m/s 740 mmHg 96%
    03:00 +7°C° 0.1 mm 2 m/s 739 mmHg 96%
    04:00 +7°C° 0.1 mm 2 m/s 739 mmHg 96%
    05:00 +7°C° 0.1 mm 2 m/s 738 mmHg 96%
    06:00 +8°C° 1.4 mm 2 m/s 738 mmHg 96%
    07:00 +8°C° 1.4 mm 3 m/s 737 mmHg 96%
    08:00 +8°C° 1.4 mm 3 m/s 737 mmHg 96%
    09:00 +8°C° 2.3 mm 3 m/s 736 mmHg 95%
    10:00 +7°C° 2.3 mm 4 m/s 735 mmHg 95%
    11:00 +7°C° 2.3 mm 4 m/s 734 mmHg 94%
    12:00 +7°C° 2.9 mm 4 m/s 733 mmHg 95%
    13:00 +7°C° 2.9 mm 4 m/s 732 mmHg 95%
    14:00 +7°C° 2.9 mm 4 m/s 732 mmHg 96%
    15:00 +7°C° 2.6 mm 4 m/s 731 mmHg 95%
    16:00 +7°C° 2.6 mm 5 m/s 731 mmHg 95%
    17:00 +5°C° 2.6 mm 6 m/s 730 mmHg 95%
    18:00 +5°C° 1.6 mm 6 m/s 731 mmHg 93%
    19:00 +5°C° 1.6 mm 7 m/s 731 mmHg 92%
    20:00 +5°C° 1.6 mm 7 m/s 732 mmHg 91%
    21:00 +5°C° 0.5 mm 7 m/s 732 mmHg 91%
    22:00 +5°C° 0.5 mm 7 m/s 733 mmHg 90%
    23:00 +5°C° 0.5 mm 6 m/s 734 mmHg 90%

    Après-demain, 25 Septembre, Mardi

    Heure Température Précipitation Vent Pression Humidité
    00:00 +5°C° 0.2 mm 6 m/s 734 mmHg 90%
    01:00 +5°C° 0.2 mm 6 m/s 735 mmHg 89%
    02:00 +5°C° 0.2 mm 6 m/s 736 mmHg 89%
    03:00 +4°C° 0 mm 6 m/s 737 mmHg 89%
    04:00 +4°C° 0 mm 6 m/s 738 mmHg 90%
    05:00 +3°C° 0 mm 6 m/s 738 mmHg 90%
    06:00 +3°C° 0 mm 6 m/s 739 mmHg 89%
    07:00 +3°C° 0 mm 6 m/s 740 mmHg 87%
    08:00 +4°C° 0 mm 6 m/s 741 mmHg 86%
    09:00 +4°C° 0 mm 6 m/s 741 mmHg 82%
    10:00 +5°C° 0 mm 6 m/s 742 mmHg 79%
    11:00 +5°C° 0 mm 6 m/s 743 mmHg 76%
    12:00 +5°C° 0.1 mm 6 m/s 743 mmHg 73%
    13:00 +7°C° 0.1 mm 6 m/s 744 mmHg 70%
    14:00 +7°C° 0.1 mm 6 m/s 744 mmHg 66%
    15:00 +7°C° 0.1 mm 6 m/s 745 mmHg 68%
    16:00 +6°C° 0.1 mm 5 m/s 745 mmHg 70%
    17:00 +6°C° 0.1 mm 5 m/s 746 mmHg 71%
    18:00 +5°C° 0 mm 4 m/s 747 mmHg 72%
    19:00 +4°C° 0 mm 4 m/s 748 mmHg 73%
    20:00 +3°C° 0 mm 4 m/s 748 mmHg 74%
    21:00 +3°C° 0 mm 4 m/s 749 mmHg 74%
    22:00 +1°C° 0 mm 4 m/s 750 mmHg 74%
    23:00 +1°C° 0 mm 4 m/s 750 mmHg 74%

    26 Septembre, Mercredi

    Heure Température Précipitation Vent Pression Humidité
    00:00 0°C° 0 mm 4 m/s 751 mmHg 76%
    01:00 +1°C° 0 mm 3 m/s 751 mmHg 78%
    02:00 +1°C° 0 mm 3 m/s 752 mmHg 79%
    03:00 +1°C° 0 mm 3 m/s 752 mmHg 82%
    04:00 +1°C° 0 mm 3 m/s 753 mmHg 85%
    05:00 0°C° 0 mm 3 m/s 753 mmHg 88%
    06:00 +1°C° 0 mm 3 m/s 753 mmHg 86%
    07:00 +2°C° 0 mm 3 m/s 753 mmHg 84%
    08:00 +3°C° 0 mm 4 m/s 753 mmHg 82%
    09:00 +5°C° 0 mm 4 m/s 753 mmHg 74%
    10:00 +7°C° 0 mm 4 m/s 753 mmHg 66%
    11:00 +10°C° 0 mm 4 m/s 753 mmHg 59%
    12:00 +9°C° 0 mm 5 m/s 753 mmHg 57%
    13:00 +9°C° 0 mm 5 m/s 752 mmHg 55%
    14:00 +10°C° 0 mm 5 m/s 751 mmHg 53%
    15:00 +9°C° 0 mm 5 m/s 751 mmHg 57%
    16:00 +8°C° 0 mm 5 m/s 750 mmHg 61%
    17:00 +7°C° 0 mm 5 m/s 750 mmHg 66%
    18:00 +5°C° 0.3 mm 6 m/s 749 mmHg 70%
    19:00 +5°C° 0.3 mm 6 m/s 748 mmHg 74%
    20:00 +4°C° 0.3 mm 7 m/s 747 mmHg 78%
    21:00 +4°C° 1.3 mm 7 m/s 746 mmHg 82%
    22:00 +4°C° 1.3 mm 8 m/s 745 mmHg 85%
    23:00 +4°C° 1.3 mm 8 m/s 744 mmHg 88%

    27 Septembre, Jeudi

    Heure Température Précipitation Vent Pression Humidité
    00:00 +4°C° 1.1 mm 8 m/s 743 mmHg 89%
    01:00 +5°C° 1.1 mm 8 m/s 742 mmHg 90%
    02:00 +5°C° 1.1 mm 8 m/s 741 mmHg 90%
    03:00 +5°C° 0.9 mm 7 m/s 741 mmHg 91%
    04:00 +5°C° 0.9 mm 7 m/s 740 mmHg 92%
    05:00 +7°C° 0.9 mm 6 m/s 740 mmHg 93%
    06:00 +7°C° 0.8 mm 6 m/s 740 mmHg 93%
    07:00 +7°C° 0.8 mm 5 m/s 740 mmHg 93%
    08:00 +8°C° 0.8 mm 5 m/s 740 mmHg 94%
    09:00 +8°C° 0.3 mm 5 m/s 740 mmHg 92%
    10:00 +9°C° 0.3 mm 5 m/s 740 mmHg 90%
    11:00 +10°C° 0.3 mm 5 m/s 740 mmHg 88%
    12:00 +12°C° 0.2 mm 5 m/s 740 mmHg 83%
    13:00 +12°C° 0.2 mm 5 m/s 741 mmHg 79%
    14:00 +13°C° 0.2 mm 5 m/s 741 mmHg 74%
    15:00 +12°C° 0.1 mm 5 m/s 741 mmHg 76%
    16:00 +12°C° 0.1 mm 4 m/s 741 mmHg 77%
    17:00 +11°C° 0.1 mm 3 m/s 742 mmHg 78%
    18:00 +10°C° 0 mm 3 m/s 742 mmHg 82%
    19:00 +9°C° 0 mm 3 m/s 742 mmHg 86%
    20:00 +8°C° 0 mm 2 m/s 742 mmHg 90%
    21:00 +8°C° 0 mm 3 m/s 742 mmHg 91%
    22:00 +9°C° 0 mm 3 m/s 742 mmHg 93%
    23:00 +9°C° 0 mm 3 m/s 741 mmHg 95%

    28 Septembre, Vendredi

    Heure Température Précipitation Vent Pression Humidité
    00:00 +8°C° 0 mm 4 m/s 741 mmHg 95%
    01:00 +10°C° 0 mm 4 m/s 740 mmHg 94%
    02:00 +10°C° 0 mm 5 m/s 739 mmHg 94%
    03:00 +10°C° 0.2 mm 6 m/s 738 mmHg 92%
    04:00 +11°C° 0.2 mm 7 m/s 737 mmHg 90%
    05:00 +12°C° 0.2 mm 8 m/s 735 mmHg 88%
    06:00 +12°C° 0.7 mm 9 m/s 735 mmHg 88%
    07:00 +12°C° 0.7 mm 9 m/s 735 mmHg 87%
    08:00 +12°C° 0.7 mm 9 m/s 734 mmHg 87%
    09:00 +11°C° 0.9 mm 9 m/s 736 mmHg 84%
    10:00 +10°C° 0.9 mm 8 m/s 737 mmHg 81%
    11:00 +9°C° 0.9 mm 8 m/s 738 mmHg 78%
    12:00 +9°C° 0 mm 7 m/s 739 mmHg 74%
    13:00 +9°C° 0 mm 7 m/s 740 mmHg 71%
    14:00 +9°C° 0 mm 6 m/s 741 mmHg 67%
    15:00 +9°C° 0 mm 5 m/s 742 mmHg 69%
    16:00 +9°C° 0 mm 3 m/s 742 mmHg 71%
    17:00 +9°C° 0 mm 2 m/s 743 mmHg 73%
    18:00 +8°C° 0 mm 3 m/s 744 mmHg 77%
    19:00 +7°C° 0 mm 3 m/s 745 mmHg 80%
    20:00 +6°C° 0 mm 4 m/s 745 mmHg 83%
    21:00 +5°C° 0 mm 3 m/s 746 mmHg 85%
    22:00 +4°C° 0 mm 3 m/s 746 mmHg 86%
    23:00 +4°C° 0 mm 2 m/s 747 mmHg 88%
    Voir plus